Simultaneous Nadir Overpasses (SNOs) Predictions

Prediction of SNOs between FY3D and AQUA Satellite Orbit:

Table of predicted SNOs for the next 14.0 days since TLE Epoch: 11/29/2025
Index Date (FY3D) Time (FY3D) Lat,Lon (FY3D) SZA (FY3D ) Date (AQUA) Time (AQUA) Lat,Lon (AQUA) SZA (AQUA ) Distance(km) Time Diff (sec)
1 12/01/2025 02:10:40 -79.55, -40.22 78.66 12/01/2025 02:11:43 -79.55, -40.16 78.66 1.06 63
2 12/01/2025 03:01:16 79.27, 129.60 101.04 12/01/2025 03:00:53 79.27, 129.52 101.04 1.65 23
3 12/03/2025 11:41:13 -79.47, 178.01 78.40 12/03/2025 11:41:36 -79.46, 178.13 78.41 2.65 23
4 12/03/2025 12:31:49 79.17, -12.21 101.29 12/03/2025 12:30:46 79.17, -12.23 101.29 0.39 63
5 12/05/2025 20:21:07 79.57,-132.84 102.03 12/05/2025 20:22:16 79.56,-132.74 102.01 2.29 69
6 12/05/2025 21:11:43 -79.32, 36.73 78.26 12/05/2025 21:11:26 -79.32, 36.71 78.25 0.40 17
7 12/08/2025 05:51:39 79.46, 85.61 102.17 12/08/2025 05:52:07 79.46, 85.64 102.17 0.69 28
8 12/08/2025 06:42:14 -79.17,-104.61 78.15 12/08/2025 06:41:16 -79.17,-104.68 78.14 1.64 58
9 12/10/2025 14:31:32 -79.54, 134.99 77.52 12/10/2025 14:32:45 -79.54, 134.93 77.52 1.32 73
10 12/10/2025 15:22:11 79.35, -55.99 102.27 12/10/2025 15:21:57 79.34, -55.95 102.27 0.87 14
11 12/13/2025 00:02:05 -79.46, -6.90 77.42 12/13/2025 00:02:35 -79.46, -6.86 77.42 0.97 30



Historial Predications of SNOs between FY3D and AQUA
